FW1302 Weather Reports


time (UTC)temp
C
wind
direction
speed
KPH
gust
KPH
rain 1hr
cm
rain 24hr
cm
rain mn
cm
humidity
%
barometer
mb
20260902115713 17 253 6.4 11.3 0.00 0.00 0.00 71 1020.5
20260902114715 16 262 3.2 4.8 0.00 0.00 0.00 70 1020.6
20260902113711 17 210 1.6 4.8 0.00 0.00 0.00 70 1020.8
20260902112712 17 247 6.4 8.0 0.00 0.00 0.00 70 1020.6
20260902110711 17 260 8.0 9.7 0.00 0.00 0.00 69 1020.6
20260902105712 17 225 6.4 9.7 0.00 0.00 0.00 68 1020.8
20260902104712 17 248 9.7 11.3 0.00 0.00 0.00 68 1020.8
20260902103715 17 227 8.0 11.3 0.00 0.00 0.00 69 1020.9
20260902101713 17 255 9.7 14.5 0.00 0.00 0.00 68 1021.2
20260902100810 17 225 8.0 9.7 0.00 0.00 0.00 67 1021.3
20260902095813 17 242 14.5 19.3 0.00 0.00 0.00 67 1021.4
20260902094814 17 223 6.4 11.3 0.00 0.00 0.00 68 1021.4
20260902092910 17 229 8.0 12.9 0.00 0.00 0.00 70 1021.4
20260902091913 17 238 19.3 25.7 0.00 0.00 0.00 70 1021.2
20260902090813 17 226 9.7 14.5 0.00 0.00 0.00 69 1021.4
20260902085814 17 225 8.0 11.3 0.00 0.00 0.00 70 1021.5
20260902084811 17 240 14.5 20.9 0.00 0.00 0.00 71 1021.3
20260902083813 17 234 6.4 8.0 0.00 0.00 0.00 70 1021.6
20260902082811 17 229 9.7 14.5 0.00 0.00 0.00 70 1021.3
20260902081813 17 227 8.0 11.3 0.00 0.00 0.00 71 1021.5
20260902080911 17 225 9.7 12.9 0.00 0.00 0.00 71 1021.5
20260902075912 17 230 9.7 12.9 0.00 0.00 0.00 71 1021.5
20260902075010 17 248 12.9 14.5 0.00 0.00 0.00 70 1021.5
20260902074013 17 225 14.5 19.3 0.00 0.00 0.00 70 1021.7
20260902073110 17 229 12.9 17.7 0.00 0.00 0.00 71 1021.7
20260902072112 17 225 9.7 12.9 0.00 0.00 0.00 72 1021.7
20260902071112 17 240 14.5 19.3 0.00 0.00 0.00 72 1021.9
20260902070112 17 239 9.7 14.5 0.00 0.00 0.00 73 1022.1
20260902065124 17 229 9.7 14.5 0.00 0.00 0.00 74 1022.2
20260902064223 17 245 14.5 17.7 0.00 0.00 0.00 74 1022.4
20260902063224 17 247 16.1 20.9 0.00 0.00 0.00 74 1022.4
20260902062228 17 243 17.7 24.1 0.00 0.00 0.00 71 1022.4
20260902060327 18 255 22.5 35.4 0.00 0.00 0.00 67 1022.2
20260902055325 18 252 17.7 22.5 0.00 0.00 0.00 67 1022.2
20260902054326 18 233 14.5 20.9 0.00 0.00 0.00 68 1022.4
20260902053424 18 238 16.1 20.9 0.00 0.00 0.00 68 1022.2
20260902051524 18 244 14.5 17.7 0.00 0.00 0.00 67 1022.2
20260902051426 18 245 16.1 24.1 0.00 0.00 0.00 67 1022.1
20260902050525 18 227 17.7 24.1 0.00 0.00 0.00 66 1021.9
20260902045526 18 228 14.5 27.4 0.00 0.00 0.00 66 1022.0
20260902044527 18 229 19.3 25.7 0.00 0.00 0.00 65 1021.8
20260902043624 18 226 14.5 19.3 0.00 0.00 0.00 65 1021.8
20260902042723 18 237 12.9 17.7 0.00 0.00 0.00 65 1021.9
20260902035725 19 226 11.3 17.7 0.00 0.00 0.00 62 1021.7
20260902033725 19 238 14.5 20.9 0.00 0.00 0.00 62 1021.2
20260902032726 19 238 14.5 17.7 0.00 0.00 0.00 62 1021.4
20260902032624 19 241 17.7 19.3 0.00 0.00 0.00 62 1021.4
20260902031625 19 241 20.9 27.4 0.00 0.00 0.00 62 1021.3
20260902030626 19 240 14.5 20.9 0.00 0.00 0.00 61 1021.5
20260902025626 19 242 20.9 27.4 0.00 0.00 0.00 61 1021.3
20260902024625 19 238 14.5 20.9 0.00 0.00 0.00 62 1021.2
20260902023724 19 232 14.5 22.5 0.00 0.00 0.00 63 1021.2
20260902022725 19 225 14.5 19.3 0.00 0.00 0.00 64 1021.2
20260902021727 20 225 11.3 16.1 0.00 0.00 0.00 65 1021.0
20260902020824 20 230 14.5 20.9 0.00 0.00 0.00 63 1021.1
20260902015826 20 228 16.1 20.9 0.00 0.00 0.00 64 1021.0
20260902014827 20 229 12.9 14.5 0.00 0.00 0.00 63 1021.0
20260902013925 20 229 17.7 24.1 0.00 0.00 0.00 63 1021.2
20260902012926 20 225 17.7 22.5 0.00 0.00 0.00 64 1021.3
20260902012023 20 225 16.1 22.5 0.00 0.00 0.00 62 1021.1
20260902011123 20 216 11.3 17.7 0.00 0.00 0.00 62 1020.9
20260902010125 20 232 17.7 22.5 0.00 0.00 0.00 63 1020.7
20260902004225 20 220 17.7 22.5 0.00 0.00 0.00 62 1020.9
20260902003225 20 225 17.7 22.5 0.00 0.00 0.00 62 1020.7
20260902002225 20 230 16.1 20.9 0.00 0.00 0.00 62 1020.8
20260902002127 20 226 14.5 22.5 0.00 0.00 0.00 63 1020.8
20260902000226 20 220 19.3 27.4 0.00 0.00 0.00 61 1020.8
20260901235323 20 235 14.5 17.7 0.00 0.00 0.00 60 1020.8
20260901234324 20 224 19.3 24.1 0.00 0.00 0.00 60 1020.8
20260901233424 20 228 16.1 22.5 0.00 0.00 0.00 61 1020.9
20260901232427 20 225 20.9 29.0 0.00 0.00 0.00 61 1021.0
20260901230424 20 220 12.9 19.3 0.00 0.00 0.00 62 1021.1
20260901223425 20 226 20.9 27.4 0.00 0.00 0.00 64 1021.4
20260901221425 19 222 19.3 27.4 0.00 0.00 0.00 65 1021.4
20260901220425 19 214 27.4 33.8 0.00 0.00 0.00 66 1021.3
20260901214425 19 210 16.1 20.9 0.00 0.00 0.00 65 1021.3
20260901213523 19 223 14.5 19.3 0.00 0.00 0.00 65 1021.4
20260901212524 19 211 19.3 27.4 0.00 0.00 0.00 66 1021.4
20260901211525 18 219 14.5 27.4 0.00 0.00 0.00 65 1021.5
20260901210526 19 229 12.9 16.1 0.00 0.00 0.00 65 1021.5
20260901205625 18 230 14.5 19.3 0.00 0.00 0.00 65 1021.4
20260901204723 18 224 12.9 16.1 0.00 0.00 0.00 66 1021.5
20260901203725 18 215 8.0 12.9 0.00 0.00 0.00 67 1021.7
20260901202725 18 226 12.9 19.3 0.00 0.00 0.00 67 1021.8
20260901201724 18 221 14.5 20.9 0.00 0.00 0.00 67 1021.8
20260901200724 18 221 11.3 16.1 0.00 0.00 0.00 67 1021.8
20260901195726 18 203 9.7 17.7 0.00 0.00 0.00 69 1022.1
20260901194823 18 225 16.1 19.3 0.00 0.00 0.00 67 1022.0
20260901193825 18 224 12.9 17.7 0.00 0.00 0.00 67 1022.2
20260901190923 18 243 12.9 17.7 0.00 0.00 0.00 69 1022.5
20260901185926 18 230 11.3 17.7 0.00 0.00 0.00 69 1022.5
20260901185025 17 231 12.9 22.5 0.00 0.00 0.00 71 1022.5
20260901184026 17 228 11.3 16.1 0.00 0.00 0.00 71 1022.6
20260901183025 17 233 14.5 19.3 0.00 0.00 0.00 70 1022.6
20260901182024 17 239 14.5 19.3 0.00 0.00 0.00 70 1022.5
20260901181026 17 239 14.5 20.9 0.00 0.00 0.00 71 1022.6
20260901175026 17 246 19.3 27.4 0.00 0.00 0.00 72 1022.5
20260901174125 17 227 8.0 14.5 0.00 0.00 0.00 72 1022.8
20260901173127 17 245 17.7 22.5 0.00 0.00 0.00 73 1022.7
20260901172224 17 235 12.9 19.3 0.00 0.00 0.00 74 1022.7
20260901171226 17 252 12.9 16.1 0.00 0.00 0.00 73 1022.7
20260901170226 16 250 14.5 19.3 0.00 0.00 0.00 72 1022.6
20260901165223 16 239 12.9 17.7 0.00 0.00 0.00 72 1022.6
20260901164225 16 229 12.9 19.3 0.00 0.00 0.00 72 1022.4
20260901163323 16 237 11.3 19.3 0.00 0.00 0.00 74 1022.7
20260901162323 16 224 12.9 16.1 0.00 0.00 0.00 73 1022.7
20260901162226 16 237 14.5 19.3 0.00 0.00 0.00 74 1022.7
20260901160226 16 224 9.7 12.9 0.00 0.00 0.00 74 1022.6
20260901155224 16 227 11.3 14.5 0.00 0.00 0.00 75 1022.7
20260901154226 16 230 9.7 11.3 0.00 0.00 0.00 75 1022.7
20260901153224 16 223 11.3 17.7 0.00 0.00 0.00 77 1022.7
20260901152226 16 224 9.7 14.5 0.00 0.00 0.00 77 1022.8
20260901151224 16 218 9.7 12.9 0.00 0.00 0.00 76 1022.7
20260901145324 16 236 14.5 20.9 0.00 0.00 0.00 76 1022.6
20260901144323 16 231 11.3 16.1 0.00 0.00 0.00 75 1022.6
20260901143324 16 230 12.9 17.7 0.00 0.00 0.00 74 1022.5
20260901142324 16 225 9.7 12.9 0.00 0.00 0.00 74 1022.5
20260901141324 16 242 9.7 14.5 0.00 0.00 0.00 74 1022.4
20260901140338 16 240 9.7 12.9 0.00 0.00 0.00 75 1022.4
20260901135424 16 236 11.3 16.1 0.00 0.00 0.00 74 1022.4
20260901134427 16 225 14.5 19.3 0.00 0.00 0.00 74 1022.2
20260901133525 16 246 16.1 20.9 0.00 0.00 0.00 75 1022.1
20260901132625 16 222 12.9 17.7 0.00 0.00 0.00 74 1022.1
20260901131625 16 226 11.3 17.7 0.00 0.00 0.00 74 1022.0
20260901131524 16 233 14.5 20.9 0.00 0.00 0.00 74 1022.0
20260901124625 16 225 14.5 20.9 0.00 0.00 0.00 75 1021.9
20260901122626 16 237 17.7 30.6 0.00 0.00 0.00 74 1021.7
20260901121723 16 246 17.7 24.1 0.00 0.00 0.00 74 1021.7